This is the latest recevied weather packets stored in our database for station/object KD9JB-1. If no packets are shown the sender has not sent any weather packets the latest 1 day(s).
| Time | Temp. | Humidity | Pressure | Rain* | Wind** | Luminosity | Snow |
|---|---|---|---|---|---|---|---|
| 1836274697 | 22.22° C | 69% | 1016.8 hPa | 0 mm | 0 m/s | - | - |
| 1836274547 | 22.22° C | 69% | 1016.8 hPa | 0 mm | 0.45 m/s, 1° | - | - |
| 1836274396 | 22.22° C | 69% | 1016.8 hPa | 0 mm | 0 m/s | - | - |
| 1836274246 | 22.22° C | 69% | 1016.7 hPa | 0 mm | 0.45 m/s, 76° | - | - |
| 1836274096 | 22.22° C | 68% | 1016.8 hPa | 0 mm | 0 m/s | - | - |
| 1778060494 | 7.78° C | 90% | 1011.2 hPa | 0 mm | 0.89 m/s, 28° | - | - |
| 1778060194 | 7.78° C | 90% | 1011.3 hPa | 0 mm | 0.89 m/s, 30° | - | - |
| 1778059894 | 7.78° C | 90% | 1011.4 hPa | 0 mm | 0.89 m/s, 349° | - | - |
| 1778059594 | 7.78° C | 90% | 1011.4 hPa | 0 mm | 0.89 m/s, 28° | - | - |
| 1778059294 | 7.78° C | 90% | 1011.6 hPa | 0 mm | 0.89 m/s, 25° | - | - |
| 1778058994 | 7.78° C | 90% | 1011.5 hPa | 0 mm | 0.89 m/s, 41° | - | - |
| 1778058694 | 7.78° C | 89% | 1011.6 hPa | 0 mm | 0.89 m/s, 11° | - | - |
| 1778058394 | 7.78° C | 90% | 1011.7 hPa | 0 mm | 0.89 m/s, 334° | - | - |
| 1778058094 | 7.78° C | 89% | 1011.7 hPa | 0 mm | 1.34 m/s, 336° | - | - |
| 1778057794 | 7.78° C | 90% | 1011.7 hPa | 0 mm | 0.89 m/s, 250° | - | - |
| 1778057494 | 7.78° C | 90% | 1010.9 hPa | 0 mm | 0.89 m/s, 342° | - | - |
| 1778057195 | 7.78° C | 90% | 1010.3 hPa | 0 mm | 0.89 m/s, 286° | - | - |
| 1778056894 | 7.78° C | 89% | 1011.3 hPa | 0 mm | 0.89 m/s, 9° | - | - |
| 1778056594 | 7.78° C | 89% | 1011.3 hPa | 0 mm | 1.34 m/s, 327° | - | - |
| 1778056294 | 7.78° C | 89% | 1011 hPa | 0 mm | 1.34 m/s, 1° | - | - |
| 1778055994 | 7.78° C | 89% | 1010.8 hPa | 0 mm | 1.34 m/s, 331° | - | - |
| 1778055694 | 7.78° C | 89% | 1010.6 hPa | 0 mm | 1.34 m/s, 44° | - | - |
| 1778055394 | 7.78° C | 90% | 1010.4 hPa | 0 mm | 1.34 m/s, 336° | - | - |
| 1778055094 | 7.78° C | 90% | 1010.1 hPa | 0 mm | 1.79 m/s, 63° | - | - |
| 1778054794 | 7.78° C | 90% | 1010.3 hPa | 0 mm | 1.79 m/s, 315° | - | - |
* Rain latest hour (hover to see other rain measurements)
** Current wind speed in m/s (hover to see current wind gust speed)